Temperature
22 21 20 20 19 19 21 24 27 28 29 29 29 28 27 26 25 23 22 23 24 23 22 22 22 22 22 21 21 20 20 20 20 20 20 20 20 20 20 20 19 19 19 19 19 19 19 19 19
22 21 20 20 19 21 23 26 27 29 29 29 28 28 27 25 23 22 22 23 24 23 22 22 22 22 21 21 21 20 20 20 20 20 20 20 20 20 20 20 20 20 20 20 20 20 20 20 19
22 21 20 19 20 22 25 27 28 29 30 30 28 28 27 26 23 23 23 23 23 23 23 22 22 22 21 21 21 20 20 20 20 20 20 20 20 20 20 20 20 20 20 20 20 20 20 20 20
22 20 20 19 21 24 26 28 29 30 30 29 28 26 26 26 25 24 23 23 23 23 22 22 22 22 22 21 21 21 20 20 20 20 20 20 20 20 20 20 20 20 20 20 20 20 20 20 20
21 21 20 20 22 26 28 30 30 30 29 28 27 25 24 25 25 24 23 23 23 23 22 22 22 22 22 21 21 21 21 20 20 20 20 20 20 20 20 20 20 20 20 20 20 20 20 20 20
21 21 20 21 24 28 30 31 30 29 28 27 26 25 24 23 24 23 23 23 23 23 22 22 22 22 22 21 21 21 21 20 20 20 20 20 20 20 20 20 20 20 20 20 20 20 20 20 20
22 20 21 23 25 27 30 30 29 28 27 27 26 24 24 23 24 23 23 23 23 23 23 22 22 22 22 21 21 21 21 21 20 20 20 20 20 20 20 20 20 20 20 20 20 20 20 20 20
24 20 22 23 25 27 29 29 28 27 27 27 26 24 24 23 23 23 23 23 23 23 23 22 22 22 22 21 21 21 21 21 20 20 20 20 20 20 20 19 19 19 19 19 20 20 20 20 20
25 21 20 23 25 26 28 27 27 26 26 26 26 26 25 24 23 23 22 22 22 22 22 22 22 22 21 21 21 20 20 20 20 20 20 20 20 20 19 19 19 19 19 19 19 19 19 19 19
24 20 22 25 26 26 27 27 26 25 24 24 25 25 25 24 24 23 22 21 21 21 21 21 21 21 21 20 20 20 20 20 20 20 20 19 19 19 19 19 18 18 18 18 18 18 18 19 19
24 23 24 26 27 27 26 25 25 24 23 23 23 24 24 24 23 23 22 21 21 21 21 21 21 20 20 20 19 19 19 19 19 19 19 19 19 19 18 18 18 18 18 18 18 18 18 18 18
25 25 26 27 28 27 26 25 24 23 22 22 23 23 23 23 23 22 22 21 21 21 20 20 20 20 19 19 19 19 19 19 19 19 19 19 18 18 18 18 18 18 18 18 17 17 17 17 17
25 25 27 27 27 26 25 24 22 22 21 22 22 22 22 22 21 21 21 21 21 21 20 20 20 19 19 19 19 19 19 19 19 18 18 18 18 18 18 18 18 18 18 17 17 17 17 17 17
26 26 26 26 26 25 24 23 22 21 21 20 20 20 20 20 20 21 21 21 21 21 20 20 19 19 19 19 19 19 19 19 18 18 18 18 18 18 18 18 18 17 17 17 17 17 17 17 17
27 25 24 25 25 25 24 21 21 20 20 19 19 19 19 19 20 20 20 20 20 20 20 19 19 19 19 19 18 18 18 18 18 18 18 18 18 18 18 17 17 17 17 17 17 17 16 16 16
24 23 23 23 24 24 22 20 20 20 19 18 18 18 18 18 18 19 19 19 19 19 19 19 18 18 18 18 18 18 18 18 18 17 17 17 17 17 17 17 17 17 17 17 17 16 16 16 16
22 22 22 23 23 24 21 19 20 19 19 18 18 18 18 18 18 18 18 18 19 18 18 18 18 18 18 18 18 18 17 17 17 17 17 17 17 17 17 17 17 17 17 16 16 16 16 16 16
21 22 22 22 23 22 20 19 19 18 18 18 18 18 18 18 18 18 18 18 18 18 18 18 18 18 18 18 17 17 17 17 17 17 17 16 16 16 16 16 16 16 16 16 16 16 16 15 15
23 22 22 22 22 20 19 18 18 18 18 18 18 18 18 18 18 18 18 18 18 18 18 18 18 18 18 18 17 17 17 17 16 16 16 16 16 15 15 15 15 15 15 15 15 15 15 15 15
23 22 21 21 21 20 18 18 18 18 18 18 18 18 19 18 18 19 19 19 19 18 18 18 18 18 18 17 17 17 16 16 16 16 15 15 15 14 14 14 14 15 15 15 15 14 14 14 14
22 21 21 20 20 20 19 17 17 17 17 18 19 19 19 19 19 19 19 19 19 19 18 18 18 18 17 17 17 16 16 16 15 15 15 15 14 14 14 14 14 14 14 14 14 14 14 14 14
22 23 23 21 19 17 18 17 17 17 17 18 19 19 19 19 19 19 19 19 19 19 18 18 17 17 17 16 16 16 15 15 14 14 14 14 14 14 14 13 13 14 14 14 14 14 14 14 14
23 23 22 21 18 17 17 17 16 16 16 17 18 19 20 20 20 20 20 20 19 19 18 17 17 16 16 15 15 15 14 14 13 13 13 13 13 13 13 13 13 13 13 13 13 13 13 13 13
23 21 19 17 17 17 17 17 17 16 16 17 18 20 20 20 20 20 20 19 19 18 18 17 16 16 15 15 14 14 14 13 13 12 12 12 12 12 12 12 12 12 12 12 13 13 13 13 13
22 20 19 19 17 17 17 17 17 17 18 18 19 20 21 20 20 20 20 19 19 18 17 17 16 16 15 15 14 14 13 13 12 12 12 11 11 11 12 12 12 12 12 12 12 12 12 12 13
24 21 20 20 18 17 17 17 17 18 19 19 20 20 20 20 20 20 19 19 18 18 17 16 16 15 14 14 13 13 12 12 12 11 11 11 11 11 11 11 11 11 11 11 11 11 12 12 12
24 22 21 18 17 16 17 17 18 19 19 19 20 20 20 20 20 19 19 18 18 17 16 16 15 14 14 13 13 12 12 11 11 11 11 11 10 10 10 10 10 10 10 11 11 11 11 11 11
24 23 19 19 18 18 18 18 17 19 19 19 19 20 20 20 19 19 18 18 17 16 16 15 14 14 13 12 12 12 11 11 11 10 10 10 10 10 10 10 10 10 10 10 10 10 10 11 11
24 23 20 18 18 18 18 18 19 19 18 18 19 20 20 20 19 19 18 17 17 16 15 14 14 13 12 12 12 11 11 10 10 10 10 9 9 9 9 9 9 9 10 10 10 10 10 10 10
24 23 20 20 19 17 17 18 20 19 19 19 20 20 20 19 19 18 17 17 16 15 14 14 13 12 12 11 11 11 10 10 10 10 9 9 9 9 9 9 9 9 9 9 9 9 9 10 10
Wind_Speed
12 10 4 2 2 1 5 6 2 1 2 7 11 11 8 6 5 5 3 16 21 19 18 20 21 22 22 22 21 20 19 18 18 17 17 16 16 16 16 15 15 14 14 14 13 12 12 12 12
10 6 2 1 1 2 6 5 2 3 6 11 11 9 8 7 9 10 7 15 20 18 17 19 21 21 22 21 21 20 19 18 17 17 16 16 15 15 15 14 14 13 13 13 12 12 11 11 10
8 5 2 1 2 4 6 5 4 5 5 7 6 6 5 6 9 7 10 18 16 14 16 20 22 21 21 21 20 19 19 18 17 16 16 15 15 14 13 13 13 13 13 12 12 11 11 10 10
4 2 1 1 7 9 9 10 3 4 5 8 8 6 5 4 6 12 19 18 17 13 15 19 21 20 20 20 19 19 18 17 17 16 16 15 15 14 13 12 12 12 12 12 11 11 10 10 9
3 3 1 4 7 9 11 11 4 6 5 8 11 7 5 6 19 22 19 18 17 13 13 18 20 20 19 19 18 18 17 17 16 16 15 15 14 14 13 12 12 12 12 11 11 10 10 10 9
1 2 1 5 7 10 9 3 8 11 11 10 10 7 5 11 19 19 18 16 16 15 12 16 19 19 18 18 17 17 16 15 15 15 14 14 14 14 13 13 12 12 12 12 12 11 11 10 10
3 1 4 6 8 8 6 4 8 11 9 6 7 7 5 11 16 17 16 16 15 14 11 11 15 16 17 17 16 16 15 15 14 14 14 14 13 13 13 13 13 13 13 13 13 13 12 12 11
5 1 4 5 7 6 6 8 7 9 7 5 5 8 7 10 15 16 16 14 13 11 11 9 11 12 13 14 16 15 15 14 14 13 13 13 13 13 13 13 14 14 14 15 14 14 14 14 13
1 1 4 5 4 6 5 7 7 7 10 7 6 6 8 14 17 17 15 12 10 10 8 8 8 9 11 12 14 14 14 14 14 13 13 13 11 11 12 13 14 15 16 16 16 16 16 15 15
4 4 8 7 6 5 5 4 3 6 11 8 8 9 12 13 14 15 15 13 11 11 10 9 8 8 10 11 11 10 11 11 11 11 11 10 10 11 12 13 16 18 18 18 18 18 17 16 14
5 8 10 11 11 6 2 4 5 8 7 5 8 10 11 12 10 11 12 12 11 11 11 10 9 7 7 5 7 7 7 8 9 10 11 11 10 9 10 8 11 14 16 15 16 17 15 14 12
7 11 12 11 11 5 1 4 7 9 7 8 12 13 13 13 10 9 10 9 8 9 9 9 8 6 5 5 5 5 4 5 6 9 11 9 5 4 4 4 6 7 8 8 10 9 12 13 14
8 12 13 11 7 2 5 8 10 10 12 15 17 17 14 13 11 11 9 8 8 8 7 7 7 7 5 4 3 3 2 3 4 5 7 8 4 4 3 2 3 3 4 5 5 7 7 9 11
7 8 8 6 1 2 9 8 8 8 12 16 17 16 14 13 11 10 9 9 8 8 7 7 7 6 5 4 3 2 2 3 3 3 3 5 4 2 2 1 1 2 3 4 5 6 7 7 7
5 7 7 5 3 2 9 11 8 8 12 15 15 14 13 11 10 9 7 7 7 6 6 5 5 5 5 3 2 2 2 3 2 2 3 4 4 3 2 1 1 2 4 5 4 5 5 6 7
6 5 5 7 5 2 9 8 7 7 11 11 11 11 11 9 8 7 7 7 6 6 6 5 6 5 5 3 2 2 2 2 1 2 3 3 4 3 2 1 1 3 3 2 3 3 4 5 6
6 4 5 7 6 4 8 7 5 6 9 9 8 8 9 8 7 6 6 6 6 6 6 5 5 5 4 3 3 3 3 3 2 1 1 2 3 3 2 1 1 2 2 2 3 3 3 5 5
4 3 3 4 7 11 11 8 6 6 7 6 6 7 6 6 6 5 5 6 6 5 5 6 5 5 4 4 4 4 4 3 3 1 1 2 2 2 2 1 2 1 1 3 3 4 4 4 5
1 1 3 3 6 9 12 10 6 5 5 3 3 4 5 4 4 5 5 6 6 5 5 5 5 4 4 3 3 3 3 3 3 3 3 2 2 2 1 1 2 2 2 4 4 3 4 4 3
2 1 1 4 6 7 10 8 4 4 1 2 4 5 5 5 5 5 5 5 5 5 5 5 5 4 4 2 2 1 0 1 1 2 4 5 4 4 3 3 3 3 3 4 4 3 3 3 3
2 4 5 4 3 7 6 3 3 2 2 3 3 5 6 8 8 8 7 7 6 7 7 7 7 5 4 3 2 2 3 3 3 4 4 4 5 6 5 5 5 5 4 5 5 4 4 4 3
3 7 9 9 6 2 2 2 4 4 5 5 4 4 7 8 8 8 9 8 8 8 7 7 6 5 4 4 3 2 1 1 3 3 3 6 6 7 6 5 5 5 5 5 5 4 3 3 4
4 5 7 7 6 4 3 2 5 3 4 6 5 6 7 9 10 10 10 9 7 6 5 5 5 4 3 3 4 3 2 3 3 3 5 5 6 6 6 5 4 4 4 5 5 4 4 3 3
7 7 8 6 5 3 2 2 4 4 6 5 5 7 8 8 8 7 5 4 3 4 4 5 5 4 3 4 3 4 4 4 4 5 5 5 5 5 6 5 4 4 4 5 5 5 4 4 4
6 6 3 4 4 1 2 0 6 7 7 7 7 6 6 5 5 5 5 5 4 5 5 4 4 3 3 3 4 4 5 5 5 5 5 5 4 5 6 6 4 3 4 5 5 4 5 5 4
2 8 6 3 3 1 2 2 7 7 7 7 6 5 2 4 5 6 6 5 5 5 5 4 3 2 2 3 4 5 5 4 4 5 5 5 5 6 6 6 5 5 6 6 5 4 6 5 5
3 1 6 7 5 4 2 4 7 5 5 5 5 4 4 5 6 6 5 5 5 5 3 3 3 2 2 3 4 5 5 5 5 6 6 5 5 6 7 6 6 6 6 6 5 5 6 6 6
4 4 6 5 4 3 3 4 5 7 8 6 6 6 6 6 6 6 5 5 4 3 2 2 2 2 3 4 4 4 5 6 6 6 6 7 7 7 7 7 7 7 7 7 6 6 6 6 7
4 5 5 4 6 6 4 5 6 10 9 9 8 8 8 8 7 5 5 4 3 3 2 1 1 2 3 4 4 5 5 6 6 6 7 7 7 7 8 8 8 8 8 7 7 7 7 7 7
3 4 6 4 1 4 5 5 3 9 9 10 9 8 8 8 6 5 4 3 2 2 2 2 3 3 4 5 5 5 6 6 6 7 8 8 8 8 8 8 8 9 9 8 8 8 8 8 8
Wind_Direction
155 147 143 113 61 345 268 256 242 328 49 68 76 80 77 57 99 132 100 141 138 143 147 147 144 142 140 139 138 136 135 133 132 131 130 130 131 131 132 133 134 135 136 135 134 132 131 130 130
149 149 137 85 126 303 270 240 216 199 136 112 87 80 76 75 89 106 111 136 138 139 141 145 144 142 142 142 142 141 140 139 139 140 140 141 141 142 142 143 144 143 142 142 141 141 140 140 140
162 172 140 152 240 229 257 252 217 204 154 119 92 63 67 91 108 117 134 136 132 133 137 145 144 143 143 144 145 147 147 147 147 148 149 150 150 151 152 153 154 154 151 151 151 150 150 152 152
144 143 314 233 249 247 249 261 217 148 87 85 102 65 46 46 106 129 136 137 132 130 135 145 144 144 145 146 148 151 152 153 154 156 158 158 160 161 162 164 165 165 163 162 162 162 162 165 168
103 136 232 265 257 263 265 252 192 120 104 98 97 86 47 44 113 129 137 139 135 132 136 144 144 144 146 148 152 155 157 159 159 161 164 166 168 169 172 175 176 177 175 174 174 175 177 180 185
117 145 205 264 273 281 279 254 113 98 104 103 96 99 82 116 123 136 140 139 137 138 137 144 147 148 149 151 154 157 159 162 164 166 170 173 175 177 180 183 185 187 186 186 186 188 190 195 200
164 186 241 271 296 305 339 33 88 102 94 91 112 102 114 134 139 140 138 136 138 141 141 144 151 152 154 155 158 160 163 165 168 172 176 179 183 185 189 194 196 197 197 198 198 200 201 204 210
183 97 298 301 309 311 356 33 62 78 83 91 103 123 150 156 141 135 133 132 135 142 148 147 150 153 156 162 165 168 170 173 176 180 183 188 192 196 200 204 206 207 208 208 209 210 211 213 217
191 52 270 270 301 306 354 56 48 52 81 65 65 108 136 139 131 129 129 130 139 147 154 153 154 159 163 167 175 177 179 183 186 190 195 197 202 207 212 215 216 219 219 218 218 218 218 219 223
150 199 242 239 266 287 343 46 81 78 70 67 70 78 105 119 125 132 139 145 153 160 167 169 168 172 174 180 179 183 188 192 194 198 204 205 208 215 223 227 229 229 229 228 226 225 224 225 226
197 223 250 266 269 262 308 33 48 105 78 92 112 106 103 104 109 128 138 145 155 162 168 170 172 176 181 182 166 184 197 198 205 209 212 214 216 224 235 237 242 238 236 233 233 231 229 226 222
238 255 258 268 268 266 192 104 64 72 99 95 94 95 86 86 85 104 117 128 140 145 150 155 158 148 157 149 156 171 189 192 201 216 219 212 212 217 224 228 236 231 228 225 227 229 230 230 228
246 261 266 268 271 247 104 101 95 79 88 85 83 78 79 86 84 83 93 98 103 106 114 125 120 123 126 124 136 129 145 158 180 200 207 199 191 209 208 224 238 233 218 219 227 228 229 231 230
253 270 287 293 282 119 110 93 82 86 89 83 79 77 79 82 87 89 85 84 86 88 92 102 103 108 108 110 121 123 115 121 128 146 182 177 173 180 198 222 226 244 235 229 225 229 234 235 230
313 328 333 346 17 113 99 65 71 93 89 86 85 84 83 83 82 83 88 90 89 87 85 94 95 83 86 78 71 83 89 101 98 116 133 135 143 148 164 211 247 242 241 239 238 235 234 240 240
354 5 342 328 2 35 91 97 94 93 92 88 90 91 87 80 80 85 88 87 86 85 79 76 87 71 61 54 45 55 57 68 80 120 131 132 140 145 150 187 248 263 259 249 249 241 238 242 243
16 356 317 324 2 39 82 109 104 84 91 94 93 95 97 93 87 90 93 99 98 95 93 82 79 73 61 51 43 43 38 26 13 57 167 172 154 146 151 201 255 281 283 271 271 267 250 252 252
305 313 313 342 15 54 72 81 73 52 79 92 99 103 103 107 111 117 113 113 112 108 99 89 77 70 63 48 42 35 27 12 3 343 264 212 189 179 171 198 252 263 279 283 278 277 267 257 256
276 324 357 24 42 62 70 66 42 35 43 67 102 114 124 133 137 131 132 128 124 117 111 108 100 83 70 54 46 36 6 351 352 345 339 318 293 272 228 239 254 250 249 259 270 272 278 271 258
84 79 44 37 46 75 82 72 26 30 324 242 175 165 159 167 165 163 161 162 158 156 154 148 139 129 115 108 109 129 235 311 331 354 354 350 330 307 279 249 248 245 244 257 259 255 269 269 244
175 183 178 152 86 84 97 54 322 313 295 272 212 183 186 188 186 188 190 195 190 186 183 172 169 157 144 130 97 48 32 12 2 350 335 326 318 303 287 268 254 245 229 239 247 240 242 266 268
235 198 171 155 128 94 142 184 269 268 280 257 233 205 208 205 194 195 197 198 201 203 188 174 169 159 152 132 116 114 110 281 272 276 292 307 310 305 299 285 265 249 234 231 241 234 229 240 268
197 160 136 131 115 83 32 110 281 301 278 264 250 234 224 213 200 199 201 202 205 198 174 166 155 157 162 155 153 155 201 233 261 284 302 307 309 307 307 302 286 267 250 240 237 239 236 231 241
127 93 73 67 81 64 282 162 273 241 236 254 251 242 231 218 203 198 192 157 134 125 132 144 151 174 185 182 186 194 218 243 269 291 298 302 303 307 309 305 302 286 270 257 247 237 237 241 244
106 104 58 15 35 297 274 173 257 256 243 232 239 238 228 205 166 151 138 130 137 136 137 143 155 190 216 219 229 231 235 243 254 267 273 283 292 297 299 301 294 291 283 274 259 247 245 243 246
156 137 150 183 172 204 299 264 264 268 255 237 234 230 209 168 148 142 142 141 142 138 139 146 159 199 239 247 258 259 259 255 251 250 249 257 262 269 278 282 276 275 277 278 264 255 252 246 245
44 36 153 126 104 108 239 287 302 281 254 229 221 205 184 156 139 133 129 130 134 136 148 155 156 205 255 263 268 270 270 255 251 260 260 262 264 274 282 282 280 279 276 271 264 254 255 251 245
106 127 70 83 120 118 183 217 223 221 213 210 194 169 155 143 134 132 133 140 148 150 148 141 158 217 261 276 276 276 268 265 265 269 271 270 272 275 283 284 280 277 273 268 261 257 254 249 248
21 39 88 98 133 138 179 251 223 197 190 173 170 165 160 153 150 153 155 159 153 145 151 177 230 260 281 285 280 285 282 279 277 272 270 270 270 271 272 273 276 276 274 268 260 255 257 253 253
173 165 135 119 23 123 137 262 269 164 164 158 165 168 163 159 163 162 160 154 149 178 230 243 253 264 269 274 280 281 280 280 279 274 271 268 267 266 263 264 266 269 272 265 258 259 261 249 250
Height
1528 1529 1531 1533 1534 1537 1532 1512 1498 1494 1490 1489 1489 1490 1494 1498 1503 1512 1509 1510 1513 1516 1520 1524 1527 1529 1531 1533 1535 1537 1538 1540 1541 1542 1544 1545 1546 1547 1548 1550 1551 1551 1552 1553 1554 1555 1555 1556 1556
1528 1530 1532 1533 1536 1539 1526 1503 1496 1491 1490 1490 1491 1493 1496 1501 1503 1505 1507 1512 1515 1517 1521 1524 1527 1530 1532 1534 1535 1537 1539 1540 1541 1543 1544 1545 1547 1548 1549 1550 1551 1551 1552 1553 1554 1555 1556 1556 1557
1529 1530 1532 1533 1534 1532 1517 1497 1491 1489 1489 1488 1492 1495 1499 1504 1505 1507 1510 1513 1516 1519 1522 1525 1528 1530 1532 1534 1536 1537 1539 1540 1541 1543 1544 1545 1547 1548 1549 1550 1551 1551 1552 1553 1554 1555 1556 1557 1558
1529 1532 1532 1534 1531 1516 1504 1493 1488 1488 1488 1489 1492 1498 1502 1506 1506 1509 1512 1515 1517 1519 1523 1525 1528 1530 1532 1534 1536 1537 1539 1540 1541 1543 1544 1545 1546 1548 1549 1550 1550 1551 1552 1553 1554 1555 1556 1557 1558
1529 1530 1534 1535 1523 1505 1494 1487 1486 1487 1489 1492 1492 1501 1506 1507 1508 1511 1514 1517 1518 1520 1523 1526 1529 1531 1533 1535 1536 1538 1539 1540 1541 1542 1544 1545 1546 1547 1548 1549 1550 1551 1552 1553 1554 1555 1556 1557 1558
1528 1528 1536 1535 1519 1501 1491 1486 1486 1488 1492 1494 1496 1501 1509 1510 1511 1514 1516 1519 1521 1522 1524 1527 1529 1531 1533 1535 1536 1538 1539 1540 1541 1542 1543 1544 1545 1547 1548 1549 1550 1551 1551 1553 1554 1555 1556 1556 1557
1527 1528 1531 1525 1517 1504 1493 1489 1488 1490 1492 1495 1496 1502 1510 1512 1514 1516 1519 1521 1523 1525 1526 1528 1530 1532 1534 1535 1536 1538 1538 1539 1541 1542 1543 1544 1545 1546 1547 1548 1549 1550 1551 1552 1553 1553 1554 1556 1557
1523 1525 1528 1524 1517 1508 1498 1494 1494 1492 1494 1496 1497 1502 1508 1513 1515 1518 1521 1523 1525 1526 1528 1529 1531 1533 1534 1535 1536 1537 1538 1539 1540 1541 1542 1543 1544 1545 1546 1547 1548 1549 1549 1550 1551 1552 1553 1554 1555
1522 1528 1532 1523 1516 1508 1500 1498 1498 1498 1496 1498 1499 1501 1507 1513 1516 1518 1520 1523 1525 1527 1529 1530 1532 1533 1534 1536 1537 1537 1538 1539 1540 1540 1541 1542 1543 1544 1545 1545 1546 1547 1548 1548 1549 1550 1551 1552 1553
1519 1529 1522 1511 1508 1506 1501 1499 1500 1502 1500 1502 1503 1505 1509 1513 1516 1518 1520 1522 1525 1527 1529 1531 1532 1534 1535 1536 1536 1537 1538 1538 1539 1540 1540 1541 1542 1542 1543 1544 1544 1545 1545 1546 1547 1548 1548 1549 1549
1514 1516 1509 1505 1503 1503 1502 1501 1501 1502 1507 1506 1506 1508 1512 1514 1517 1519 1521 1523 1525 1527 1529 1530 1532 1533 1534 1535 1536 1537 1537 1538 1538 1539 1539 1540 1540 1541 1541 1542 1542 1542 1542 1543 1543 1544 1544 1545 1545
1511 1506 1504 1501 1500 1500 1501 1502 1504 1505 1509 1510 1509 1510 1513 1514 1517 1519 1521 1523 1525 1526 1528 1529 1531 1532 1533 1534 1535 1535 1536 1536 1536 1537 1537 1537 1538 1538 1539 1539 1539 1539 1539 1538 1539 1539 1539 1540 1540
1507 1503 1500 1498 1497 1498 1499 1503 1506 1511 1512 1511 1511 1513 1515 1516 1518 1520 1523 1524 1525 1526 1528 1529 1530 1531 1532 1533 1533 1534 1534 1534 1535 1535 1535 1535 1535 1535 1535 1535 1536 1535 1535 1534 1534 1534 1534 1535 1534
1502 1500 1498 1496 1496 1498 1500 1506 1508 1515 1514 1513 1513 1514 1517 1518 1520 1521 1523 1525 1526 1527 1528 1529 1530 1531 1531 1532 1532 1533 1533 1532 1532 1533 1533 1533 1532 1532 1532 1532 1531 1531 1530 1530 1529 1529 1529 1529 1529
1500 1500 1498 1497 1496 1499 1500 1512 1515 1517 1517 1516 1517 1518 1519 1520 1522 1523 1524 1525 1526 1527 1528 1529 1529 1530 1529 1530 1530 1530 1530 1531 1530 1530 1530 1529 1529 1529 1528 1528 1527 1527 1526 1525 1524 1523 1523 1523 1523
1501 1506 1511 1501 1498 1498 1504 1523 1520 1518 1518 1519 1521 1521 1522 1523 1524 1525 1526 1526 1527 1527 1528 1528 1529 1528 1528 1528 1528 1528 1528 1528 1528 1528 1528 1527 1527 1526 1525 1524 1524 1523 1522 1520 1519 1518 1517 1516 1516
1512 1519 1516 1507 1501 1500 1507 1522 1523 1521 1520 1522 1523 1524 1525 1526 1526 1526 1527 1527 1527 1528 1528 1528 1528 1528 1528 1527 1527 1527 1527 1527 1526 1526 1526 1525 1524 1523 1523 1522 1520 1519 1518 1516 1515 1513 1512 1511 1510
1522 1520 1516 1515 1508 1508 1514 1523 1525 1525 1524 1525 1525 1525 1526 1527 1528 1528 1528 1528 1528 1528 1528 1528 1527 1527 1527 1527 1527 1526 1526 1526 1525 1524 1524 1523 1522 1521 1520 1518 1517 1515 1514 1512 1511 1509 1507 1506 1505
1510 1513 1517 1515 1512 1516 1522 1527 1528 1526 1525 1526 1526 1526 1527 1528 1529 1529 1529 1529 1529 1529 1528 1528 1528 1528 1527 1527 1526 1526 1525 1524 1524 1522 1521 1520 1519 1518 1516 1515 1513 1512 1510 1508 1507 1505 1503 1502 1501
1508 1514 1517 1516 1513 1519 1526 1531 1528 1526 1526 1526 1526 1525 1526 1529 1529 1530 1530 1529 1529 1529 1528 1528 1527 1527 1527 1526 1525 1524 1523 1522 1521 1519 1518 1517 1515 1514 1512 1511 1509 1508 1506 1505 1503 1501 1499 1498 1498
1509 1514 1515 1518 1518 1521 1528 1537 1533 1528 1526 1526 1525 1525 1526 1527 1528 1528 1528 1528 1528 1527 1527 1526 1526 1525 1524 1524 1523 1522 1521 1519 1518 1516 1514 1513 1511 1509 1508 1506 1505 1504 1502 1501 1500 1498 1496 1495 1494
1510 1502 1505 1513 1524 1536 1533 1546 1535 1529 1527 1524 1523 1524 1526 1526 1526 1526 1526 1526 1525 1525 1524 1524 1523 1523 1522 1521 1520 1518 1517 1515 1513 1511 1509 1507 1506 1504 1502 1501 1500 1499 1498 1497 1496 1495 1493 1491 1490
1502 1499 1505 1514 1527 1537 1537 1543 1539 1530 1529 1524 1522 1522 1524 1524 1524 1524 1524 1524 1524 1523 1523 1522 1521 1520 1519 1518 1516 1515 1512 1510 1508 1506 1504 1502 1500 1499 1497 1496 1495 1493 1493 1492 1492 1491 1490 1488 1487
1496 1505 1515 1524 1533 1548 1542 1543 1542 1532 1527 1521 1519 1520 1521 1522 1522 1522 1523 1523 1522 1522 1521 1520 1519 1518 1516 1515 1513 1511 1509 1506 1504 1501 1499 1497 1495 1494 1492 1491 1490 1489 1488 1487 1487 1486 1486 1485 1484
1499 1517 1536 1540 1550 1551 1540 1541 1538 1522 1518 1518 1518 1518 1519 1521 1521 1521 1521 1521 1521 1520 1519 1518 1517 1516 1514 1512 1510 1508 1505 1502 1500 1497 1495 1493 1491 1489 1487 1486 1484 1483 1483 1482 1482 1481 1481 1480 1480
1496 1508 1531 1541 1549 1551 1543 1542 1530 1517 1515 1515 1516 1518 1519 1519 1519 1519 1520 1520 1519 1519 1517 1516 1514 1513 1511 1509 1506 1504 1501 1499 1496 1494 1491 1488 1486 1484 1482 1480 1479 1478 1477 1477 1476 1476 1475 1475 1475
1496 1503 1504 1525 1539 1551 1547 1537 1525 1516 1515 1515 1516 1517 1517 1518 1518 1518 1518 1518 1517 1516 1515 1513 1511 1509 1507 1505 1502 1500 1497 1494 1492 1489 1486 1484 1481 1479 1476 1475 1473 1472 1471 1471 1470 1470 1470 1469 1469
1490 1495 1509 1525 1542 1549 1545 1540 1535 1521 1518 1515 1515 1516 1516 1517 1517 1517 1517 1516 1515 1514 1512 1510 1508 1506 1503 1501 1498 1495 1493 1490 1487 1484 1481 1478 1476 1473 1471 1469 1467 1466 1465 1464 1464 1463 1463 1463 1463
1495 1498 1508 1522 1528 1544 1550 1542 1515 1514 1513 1514 1514 1514 1515 1515 1515 1515 1514 1513 1512 1510 1509 1506 1504 1502 1499 1496 1493 1491 1488 1485 1482 1479 1476 1473 1470 1468 1466 1464 1462 1460 1459 1458 1457 1456 1456 1456 1456
1492 1496 1506 1522 1526 1532 1541 1539 1507 1509 1510 1511 1512 1513 1513 1514 1513 1513 1512 1510 1509 1507 1505 1503 1500 1497 1495 1492 1489 1486 1482 1479 1476 1473 1470 1467 1465 1462 1460 1458 1456 1454 1452 1451 1450 1449 1449 1449 1449